Regional Weather Roundup
Issued by NWS

Home | Current Version | Previous Version | Graphics & Text | Print | Product List | Glossary On
Versions: 1 2 3 4 5 6 7 8 9 10 11 12 13 14 15 16 17 18 19 20 21 22 23 24 25 26 27 28 29 30 31 32 33 34 35 36 37 38 39 40 41 42 43 44 45 46 47 48 49 50
000
ASUS43 KMKX 230821
RWRWI

WISCONSIN REGIONAL WEATHER ROUNDUP
NATIONAL WEATHER SERVICE MILWAUKEE/SULLIVAN WI
300 AM CDT SAT MAY 23 2015

NOTE: "FAIR" INDICATES FEW OR NO CLOUDS BELOW 12,000 FEET WITH NO
SIGNIFICANT WEATHER AND/OR OBSTRUCTIONS TO VISIBILITY.

WIZ001-002-006>008-014>016-023>028-230900-
NORTHWEST WISCONSIN

CITY           SKY/WX    TMP DP  RH WIND       PRES   REMARKS
SUPERIOR ARPT  CLEAR     36  34  93 SW6       30.19S WCI  31
ASHLAND        CLEAR     47  37  68 W6        30.19R
HAYWARD        CLEAR     39  35  86 CALM      30.22S
SIREN          CLEAR     43  40  88 CALM      30.22R
CUMBERLAND     CLEAR     45  41  87 CALM      30.23S
RICE LAKE      CLEAR     44  41  91 CALM      30.24S
CHETEK         CLEAR     42  41  97 CALM      30.24R
LADYSMITH      CLEAR     40  38  91 CALM      30.25S
EAU CLAIRE     CLEAR     43  38  82 CALM      30.23R
MENOMONIE      CLEAR     48  44  83 CALM      30.23S
NEW RICHMOND   CLEAR     46  40  80 CALM      30.22S
OSCEOLA        CLEAR     44  43  97 CALM      30.24S
$$

WIZ003>005-009-010-017-018-230900-
NORTH CENTRAL WISCONSIN

CITY           SKY/WX    TMP DP  RH WIND       PRES   REMARKS
MANITOWISH WTR CLEAR     37  36  94 CALM      30.22S
ARBOR VITAE    CLEAR     42  36  80 CALM      30.23S
WOODRUFF       CLEAR     42  36  80 CALM      30.23S
RHINELANDER    CLEAR     36  33  89 CALM      30.24S
EAGLE RIVER    CLEAR     37  32  84 CALM      30.23S
LAND O LAKES   CLEAR     32  31  97 CALM      30.24R
PHILLIPS       CLEAR     38  36  92 CALM      30.23S
TOMAHAWK       CLEAR     34  32  94 CALM      30.25S
MEDFORD        CLEAR     39  37  90 CALM      30.25R
MERRILL        CLEAR     35  34  96 CALM      30.27R
$$

WIZ029-030-035-036-043>047-230900-
CENTRAL WISCONSIN

CITY           SKY/WX    TMP DP  RH WIND       PRES   REMARKS
WAUSAU         CLEAR     45  38  76 SE6       30.25R
MOSINEE        CLEAR     43  39  87 CALM      30.27R
MARSHFIELD     CLEAR     49  37  63 S3        30.25R
STEVENS POINT  CLEAR     45  37  72 CALM      30.27R
WAUPACA        CLEAR     45  35  69 CALM      30.27S
WAUTOMA        PTCLDY    41  38  89 CALM      30.28R
WISC RAPIDS    CLEAR     48  35  60 CALM      30.27R
CAMP DOUGLAS   CLEAR     39  39 100 E2        30.25R
$$

WIZ011>013-019>022-031-037>040-048>050-230900-
NORTHEAST WISCONSIN

CITY           SKY/WX    TMP DP  RH WIND       PRES   REMARKS
ANTIGO         CLEAR     41  34  76 CALM      30.27R
SHAWANO        CLEAR     44  37  76 CALM      30.27S
OCONTO         CLEAR     36  34  95 CALM      30.27R
STURGEON BAY   CLEAR     46  25  42 S6        30.30R
GREEN BAY      CLEAR     42  34  73 CALM      30.27S
MANITOWOC      PTCLDY    46  28  49 CALM      30.28S
APPLETON       CLEAR     45  28  53 SW5       30.28R
CLINTONVILLE   CLEAR     41  34  75 CALM      30.27R
OSHKOSH        PTCLDY    48  30  49 SW6       30.27R
$$

WIZ032>034-041-042-053>061-230900-
SOUTHWEST WISCONSIN

CITY           SKY/WX    TMP DP  RH WIND       PRES   REMARKS
LA CROSSE      CLEAR     51  44  77 SE6       30.23S
SPARTA         CLEAR     39  37  94 CALM      30.25S
VIROQUA        CLEAR     51  42  70 SE9       30.25R
BOSCOBEL       MOCLDY    48  44  86 CALM      30.26R
PRAIRIE DU CHI MOCLDY    51  46  82 CALM      30.24R
PLATTEVILLE    CLOUDY    51  41  67 E7        30.26S
$$

WIZ056-057-062-063-064-067-068-230900-
SOUTH CENTRAL WISCONSIN

CITY           SKY/WX    TMP DP  RH WIND       PRES   REMARKS
REEDSBURG      PTCLDY    52  36  53 CALM      30.26S
BARABOO/DELLS  PTCLDY    50  32  49 S7        30.27R
LONE ROCK      MOCLDY    51  39  63 E5        30.27R
MINERAL POINT  PTCLDY    52  36  54 SE8       30.27R
MADISON        PTCLDY    53  31  42 S7        30.28R
MIDDLETON      PTCLDY    53  29  39 S3        30.28S
WATERTOWN      CLEAR     41  32  71 CALM      30.29R
MONROE         CLEAR     48  34  57 SE8       30.27S
JANESVILLE     CLEAR     45  32  61 E3        30.29R
$$

WIZ051-052-058>065-066-070>072-230900-
SOUTHEAST WISCONSIN

CITY           SKY/WX    TMP DP  RH WIND       PRES   REMARKS
MILWAUKEE      PTCLDY    48  30  49 SW6       30.29R
WAUKESHA       PTCLDY    46  28  49 S5        30.30S
MILWAUKEE/TIMM PTCLDY    45  30  57 CALM      30.30R
RACINE         MOCLDY    49  29  46 SW6       30.31R
BURLINGTON     PTCLDY    40  33  76 CALM      30.29S
KENOSHA        PTCLDY    45  34  65 SW3       30.29S
FOND DU LAC    PTCLDY    44  29  55 CALM      30.28R
SHEBOYGAN      PTCLDY    42  29  59 SW6       30.28S
WEST BEND      PTCLDY    48  27  43 CALM      30.28S
JUNEAU         CLEAR     45  30  56 CALM      30.30R
$$

LSZ147-162-230900-
LAKE SUPERIOR

STATION/POSITION TIME  TEMP    WIND        PRES    WAVE
                       AIR SEA DIR/SP/G            HT/PER
                 (UTC) (F)     (DEG/KT/KT) (MB)    (FT/S)
W MID LAKE BUOY  0750   40 36  240/ 10/ 10   N/A     0
DEVILS ISLAND    0800   42     240/ 12/ 14   N/A
PORT WING        0700   41     160/  2/  3   N/A
SAXON HARBOR     0640   56     170/  5/  8   N/A
$$

LMZ867-665-643>646-230900-
LAKE MICHIGAN

STATION/POSITION TIME  TEMP    WIND        PRES    WAVE
                       AIR SEA DIR/SP/G            HT/PER
                 (UTC) (F)     (DEG/KT/KT) (MB)    (FT/S)
CHAMBERS ISLAND  0700   49     170/  6/ 11   N/A
N MID LAKE BUOY  0750   40 36  200/  6/  8   N/A     0
NORTHPORT PIER   0700   47     200/  4/  8   N/A
SISTER BAY       0717   43        CALM       N/A
KEWAUNEE LAKESHO 0700   45      CALM  /  2   N/A
SHEBOYGAN LAKESH 0800   52     230/  8/  9   N/A
PORT WASHINGTON  0740   50     260/  5/  6   N/A
ATWATER BUOY     0700   50 45  190/  6/  6   N/A
MILWAUKEE LAKESH 0700   53     220/  4/  5   N/A
S MID LAKE BUOY  0750   44 38  190/  6/  6   N/A     0
KENOSHA   LAKESH 0800   53     210/  6/  7   N/A
$$

TC  - TEMPERATURE IN CELSIUS
VSB - VISIBILITY IN STATUTE MILES
WCI - WIND CHILL INDEX
HX  - HEAT INDEX




USA.gov is the U.S. government's official web portal to all federal, state and local government web resources and services.